Location: Long Barn
(38.0930°N, 120.1344°W)
Time: 00:57:33
(UTC+00:00)

Hubble Space Telescope - Visible Passes

Search period start: 25 January 2026 00:00
Search period end: 04 February 2026 00:00
Orbit: 478 x 481 km, 28.5° (Epoch: 24 January)

Date Brightness Start Highest point End Pass type
(mag) Time Alt. Az. Time Alt. Az. Time Alt. Az.
25 Jan 3.0 02:17:33 10° SSW 02:19:18 13° SSE 02:21:04 10° SE visible
26 Jan 3.0 01:47:38 10° SSW 01:49:24 13° SSE 01:51:11 10° SE visible
26 Jan 2.9 03:25:54 10° SW 03:27:37 17° SSW 03:27:37 17° SSW visible
27 Jan 2.5 02:55:59 10° SW 02:58:42 19° S 02:59:27 18° SSE visible
28 Jan 2.7 02:26:03 10° SW 02:28:45 19° S 02:31:17 11° SE visible
29 Jan 2.7 01:56:05 10° SW 01:58:47 19° S 02:01:30 10° SE visible
29 Jan 3.2 03:35:52 10° SW 03:37:16 14° SSW 03:37:16 14° SSW visible
30 Jan 2.9 03:05:54 10° SW 03:08:01 14° SSW 03:09:09 13° S visible
31 Jan 3.1 02:35:53 10° SW 02:38:00 14° SSW 02:40:07 10° SSE visible
1 Feb 3.2 02:05:52 10° SW 02:07:58 14° SSW 02:10:04 10° SSE visible
